Location: Perugia
(43.1330°N, 12.3670°E)
Time: 17:13:20
(UTC+01:00)

ISS - Visible Passes

Search period start: 24 January 2021 00:00
Search period end: 03 February 2021 00:00
Orbit: 418 x 421 km, 51.6° (Epoch: 24 January)

Date Brightness Start Highest point End Pass type
(mag) Time Alt. Az. Time Alt. Az. Time Alt. Az.
24 Jan -2.1 18:45:41 10° WNW 18:48:32 25° NNW 18:49:25 22° N visible
25 Jan -2.4 17:57:58 10° W 18:01:01 30° NNW 18:04:00 10° NE visible
25 Jan -1.0 19:36:04 10° NW 19:36:58 14° NW 19:36:58 14° NW visible
26 Jan -1.9 18:48:26 10° NW 18:50:59 19° N 18:51:32 19° N visible
27 Jan -1.9 18:00:42 10° WNW 18:03:22 21° N 18:06:03 10° NE visible
27 Jan -1.0 19:38:20 10° NW 19:39:04 14° NNW 19:39:04 14° NNW visible
28 Jan -1.9 18:50:52 10° NW 18:53:25 19° N 18:53:37 19° N visible
29 Jan -1.8 18:03:18 10° NW 18:05:47 19° N 18:08:11 10° NE visible
29 Jan -1.1 19:40:16 10° NW 19:41:09 16° NW 19:41:09 16° NW visible
30 Jan -2.3 18:52:54 10° NW 18:55:46 25° NNE 18:55:46 25° NNE visible
31 Jan -2.1 18:05:28 10° NW 18:08:09 21° N 18:10:25 12° ENE visible
31 Jan -1.4 19:42:05 10° NW 19:43:24 21° NW 19:43:24 21° NW visible
01 Feb -3.3 18:54:42 10° NW 18:57:57 42° NNE 18:58:07 42° NE visible
02 Feb -2.7 18:07:18 10° NW 18:10:23 31° NNE 18:12:57 13° E visible
02 Feb -1.7 19:44:02 10° WNW 19:45:57 29° W 19:45:57 29° W visible
